Watson, IL

8:18 AM CST on February 13, 2016 (GMT -0600)
Effingham

Weather History for K1H2 - September, 2013

Change the Weather History Date:

Wednesday, September 11, 2013

  Actual Average (KMTO) Record (KMTO)
Temperature  
Mean Temperature 83 °F 69 °F  
Max Temperature 96 °F 80 °F 95 °F (1952)
Min Temperature 70 °F 57 °F 44 °F (1959)
Degree Days  
Heating Degree Days 0 1  
Month to date heating degree days 5  
Since 1 July heating degree days 10  
Cooling Degree Days 18 5  
Month to date cooling degree days 65  
Year to date cooling degree days 985  
Growing Degree Days 33 (Base 50)    
Moisture  
Dew Point 65 °F    
Average Humidity 61    
Maximum Humidity 91    
Minimum Humidity 25    
Precipitation  
Precipitation 0.00 in 0.10 in 1.38 in (1975)
Month to date precipitation 1.24  
Year to date precipitation 27.14  
Sea Level Pressure  
Sea Level Pressure 30.10 in    
Wind  
Wind Speed 5 mph (SW)    
Max Wind Speed 12 mph    
Max Gust Speed 16 mph    
Visibility 9 miles    
Events Fog    
T = Trace of Precipitation, MM = Missing Value Source: NWS Daily Summary

Daily Weather History Graph

Daily Weather History Graph

Search for Another Location

Airport or City:

Trip Planner

Search our weather history database for the weather conditions in past years. The results will help you decide how hot, cold, wet, or windy it might be!

Date:

Astronomy

Sep. 11, 2013 Rise Set
Actual Time 6:32 AM CDT 7:08 PM CDT
Civil Twilight 6:05 AM CDT 7:35 PM CDT
Nautical Twilight 5:33 AM CDT 8:07 PM CDT
Astronomical Twilight 5:00 AM CDT 8:39 PM CDT
Moon 12:57 PM CDT (9/11) 11:07 PM CDT (9/11)
Length of Visible Light 13h 30m
Length of Day
12h 36m
Waxing Crescent, 39% of the Moon is Illuminated
Sep 11
Waxing Crescent
Sep 12
First Quarter
Sep 19
Full
Sep 26
Last Quarter
Oct 4
New

Hourly Weather History & Observations

Time (CDT) Temp. Heat Index Dew Point Humidity Pressure Visibility Wind Dir Wind Speed Gust Speed Precip Events Conditions
12:15 AM 76.8 °F - 67.1 °F 72% 30.10 in 10.0 mi South 5.8 mph - N/A   Clear
12:35 AM 77.4 °F - 68.0 °F 73% 30.10 in 10.0 mi South 5.8 mph - N/A   Clear
12:55 AM 77.0 °F - 68.2 °F 74% 30.10 in 10.0 mi SSW 6.9 mph - N/A   Clear
1:15 AM 77.0 °F - 68.5 °F 75% 30.10 in 10.0 mi SSW 5.8 mph - N/A   Clear
1:35 AM 77.0 °F - 68.9 °F 76% 30.09 in 10.0 mi SSW 4.6 mph - N/A   Clear
1:55 AM 76.5 °F - 68.9 °F 77% 30.10 in 10.0 mi SSW 5.8 mph - N/A   Clear
2:15 AM 76.1 °F - 68.9 °F 78% 30.10 in 10.0 mi SW 5.8 mph - N/A   Clear
2:35 AM 75.2 °F - 69.4 °F 82% 30.10 in 7.0 mi WSW 4.6 mph - N/A   Clear
2:55 AM 74.8 °F - 69.8 °F 84% 30.10 in 7.0 mi Calm Calm - N/A   Clear
3:15 AM 74.3 °F - 69.1 °F 84% 30.10 in 7.0 mi Calm Calm - N/A   Clear
3:35 AM 71.6 °F - 67.8 °F 88% 30.11 in 5.0 mi SE 5.8 mph - N/A   Clear
3:55 AM 72.5 °F - 69.3 °F 90% 30.11 in 5.0 mi SSE 4.6 mph - N/A   Clear
4:15 AM 72.9 °F - 69.1 °F 88% 30.11 in 7.0 mi SSE 3.5 mph - N/A   Clear
4:35 AM 73.4 °F - 69.8 °F 88% 30.11 in 5.0 mi South 4.6 mph - N/A   Clear
4:55 AM 73.4 °F - 69.6 °F 88% 30.12 in 5.0 mi Calm Calm - N/A   Clear
5:15 AM 72.9 °F - 69.8 °F 90% 30.12 in 5.0 mi South 3.5 mph - N/A   Clear
5:35 AM 72.5 °F - 69.4 °F 90% 30.12 in 4.0 mi Calm Calm - N/A   Clear
5:55 AM 72.5 °F - 69.3 °F 90% 30.13 in 4.0 mi South 3.5 mph - N/A   Clear
6:15 AM 71.6 °F - 68.4 °F 89% 30.13 in 4.0 mi Calm Calm - N/A   Clear
6:35 AM 70.2 °F - 67.5 °F 91% 30.14 in 0.2 mi Calm Calm - N/A Fog Fog
6:55 AM 70.3 °F - 67.6 °F 91% 30.15 in 0.2 mi Calm Calm - N/A Fog Fog
7:15 AM 70.2 °F - 67.5 °F 91% 30.15 in 1.5 mi Calm Calm - N/A   Scattered Clouds
7:35 AM 72.3 °F - 69.6 °F 91% 30.15 in 2.5 mi Calm Calm - N/A   Clear
7:55 AM 74.3 °F - 70.0 °F 86% 30.15 in 5.0 mi SSW 3.5 mph - N/A   Clear
8:15 AM 75.7 °F - 69.8 °F 82% 30.15 in 7.0 mi SSW 4.6 mph - N/A   Clear
8:35 AM 77.2 °F - 69.8 °F 78% 30.15 in 7.0 mi SW 3.5 mph - N/A   Clear
8:55 AM 78.3 °F - 69.6 °F 75% 30.15 in 10.0 mi SW 4.6 mph - N/A   Clear
9:15 AM 80.1 °F 82.9 °F 69.1 °F 69% 30.15 in 10.0 mi WSW 5.8 mph - N/A   Clear
9:35 AM 82.4 °F 85.4 °F 68.4 °F 62% 30.15 in 10.0 mi WSW 4.6 mph - N/A   Clear
9:51 AM 84.2 °F 86.6 °F 66.2 °F 55% 30.15 in 10.0 mi SW 5.8 mph - N/A   Clear
9:55 AM 83.8 °F 86.0 °F 66.2 °F 55% 30.15 in 10.0 mi SW 4.6 mph - N/A   Clear
10:15 AM 85.8 °F 88.2 °F 66.4 °F 52% 30.14 in 10.0 mi West 3.5 mph - N/A   Clear
10:35 AM 87.4 °F 89.5 °F 65.7 °F 48% 30.14 in 10.0 mi West 5.8 mph - N/A   Clear
10:55 AM 88.9 °F 90.7 °F 65.3 °F 45% 30.14 in 10.0 mi Calm Calm - N/A   Clear
11:15 AM 90.0 °F 91.0 °F 63.3 °F 41% 30.13 in 10.0 mi SW 5.8 mph - N/A   Clear
11:35 AM 91.6 °F 92.7 °F 63.1 °F 39% 30.13 in 10.0 mi West 5.8 mph - N/A   Clear
11:55 AM 91.8 °F 92.2 °F 61.7 °F 37% 30.13 in 10.0 mi West 5.8 mph - N/A   Clear
12:15 PM 92.7 °F 91.8 °F 58.6 °F 32% 30.12 in 10.0 mi West 8.1 mph - N/A   Clear
12:35 PM 93.4 °F 92.5 °F 58.1 °F 31% 30.12 in 10.0 mi West 6.9 mph - N/A   Clear
12:55 PM 93.7 °F 92.0 °F 56.5 °F 28% 30.11 in 10.0 mi West 11.5 mph - N/A   Clear
1:15 PM 94.8 °F 93.1 °F 55.6 °F 27% 30.11 in 10.0 mi West 9.2 mph - N/A   Clear
1:35 PM 95.2 °F 93.6 °F 56.5 °F 27% 30.10 in 10.0 mi West 6.9 mph - N/A   Clear
1:55 PM 95.4 °F 93.8 °F 56.1 °F 27% 30.10 in 10.0 mi West 9.2 mph - N/A   Scattered Clouds
2:15 PM 95.0 °F 93.0 °F 54.7 °F 26% 30.09 in 10.0 mi West 9.2 mph - N/A   Scattered Clouds
2:35 PM 96.1 °F 94.1 °F 54.9 °F 25% 30.08 in 10.0 mi West 11.5 mph 16.1 mph N/A   Scattered Clouds
2:55 PM 95.5 °F 93.7 °F 55.0 °F 26% 30.08 in 10.0 mi WSW 8.1 mph - N/A   Scattered Clouds
3:15 PM 95.7 °F 94.0 °F 55.2 °F 26% 30.07 in 10.0 mi West 6.9 mph - N/A   Clear
3:35 PM 95.7 °F 93.7 °F 54.7 °F 25% 30.07 in 10.0 mi WSW 9.2 mph - N/A   Scattered Clouds
3:55 PM 94.8 °F 93.1 °F 55.6 °F 27% 30.06 in 10.0 mi West 6.9 mph - N/A   Clear
4:15 PM 94.3 °F 92.7 °F 56.3 °F 28% 30.06 in 10.0 mi WSW 5.8 mph - N/A   Clear
4:35 PM 92.3 °F 91.3 °F 58.3 °F 32% 30.05 in 10.0 mi West 5.8 mph - N/A   Clear
4:55 PM 93.4 °F 92.2 °F 57.6 °F 30% 30.05 in 10.0 mi WSW 6.9 mph - N/A   Clear
5:15 PM 93.2 °F 91.9 °F 57.6 °F 30% 30.05 in 10.0 mi SW 8.1 mph - N/A   Clear
5:35 PM 92.5 °F 91.3 °F 57.4 °F 31% 30.05 in 10.0 mi WSW 4.6 mph - N/A   Clear
5:55 PM 91.6 °F 90.7 °F 58.3 °F 33% 30.05 in 10.0 mi WSW 3.5 mph - N/A   Clear
6:15 PM 89.6 °F 90.1 °F 62.2 °F 40% 30.04 in 10.0 mi Calm Calm - N/A   Clear
6:35 PM 87.4 °F 88.2 °F 63.3 °F 44% 30.05 in 10.0 mi Calm Calm - N/A   Clear
6:55 PM 82.6 °F 85.3 °F 67.6 °F 60% 30.05 in 10.0 mi Calm Calm - N/A   Clear
7:15 PM 80.1 °F 82.4 °F 67.3 °F 65% 30.05 in 10.0 mi Calm Calm - N/A   Clear
7:35 PM 78.4 °F - 67.3 °F 68% 30.05 in 10.0 mi Calm Calm - N/A   Clear
7:55 PM 77.0 °F - 66.2 °F 69% 30.05 in 10.0 mi Calm Calm - N/A   Clear
8:15 PM 76.1 °F - 66.9 °F 73% 30.06 in 10.0 mi Calm Calm - N/A   Clear
8:35 PM 75.2 °F - 66.9 °F 75% 30.06 in 10.0 mi Calm Calm - N/A   Clear
8:55 PM 74.1 °F - 66.4 °F 77% 30.07 in 10.0 mi Calm Calm - N/A   Clear
9:15 PM 73.8 °F - 66.9 °F 79% 30.06 in 10.0 mi Calm Calm - N/A   Clear
9:35 PM 73.9 °F - 66.9 °F 79% 30.06 in 10.0 mi Calm Calm - N/A   Clear
9:55 PM 73.8 °F - 66.2 °F 77% 30.05 in 10.0 mi South 4.6 mph - N/A   Clear
10:15 PM 78.1 °F - 63.5 °F 61% 30.05 in 10.0 mi SSW 4.6 mph - N/A   Scattered Clouds
10:35 PM 78.4 °F - 63.5 °F 60% 30.05 in 10.0 mi SSW 5.8 mph - N/A   Scattered Clouds
10:55 PM 78.6 °F - 64.4 °F 62% 30.05 in 10.0 mi SW 6.9 mph - N/A   Clear
11:15 PM 79.2 °F - 64.4 °F 60% 30.04 in 10.0 mi SW 8.1 mph - N/A   Scattered Clouds
11:35 PM 79.2 °F - 64.4 °F 60% 30.04 in 10.0 mi SW 8.1 mph - N/A   Scattered Clouds
11:55 PM 78.8 °F - 64.8 °F 62% 30.04 in 10.0 mi SW 8.1 mph - N/A   Clear